{"data":{"norad_id":59937,"intl_designator":"2024-106R","name":"STARLINK-31879","alt_names":[],"object_type":"PAYLOAD","status":"ACTIVE","operator":null,"country":"US","launch_date":"2024-06-01","launch_site_code":"AFETR","launch_vehicle":null,"mission":null,"orbit_class":"UNKNOWN","rcs_meters":null,"size_class":null,"mass_kg":null,"dimensions":null,"purposes":["comms"],"wikipedia_slug":null,"has_3d_model":false,"image_url":null,"decayed_at":null,"tle_current":{"epoch":"2026-05-25T00:49:36.751296Z","epoch_age_seconds":69174,"freshness":"FRESH","line1":"1 59937U 24106R   26145.03445314  .00000250  00000+0  18603-4 0  9996","line2":"2 59937  43.0018 261.8050 0001156 273.4214  86.6506 15.27575378112240","mean_motion":15.27575378,"eccentricity":0.0001156,"inclination_deg":43.0018,"raan_deg":261.805,"arg_perigee_deg":273.4214,"mean_anomaly_deg":86.6506,"bstar":1.8603e-5,"rev_number":11224,"period_min":94.26703393749,"perigee_km":482.2697812927,"apogee_km":483.85609071791,"semimajor_km":6861.1999360053,"source":"CELESTRAK","updated_at":"2026-05-25T13:38:19.124735Z"}}}